Flight Track Log - Related Links

Times and Time Zones

All times are in EDT time to prevent confusion due to time zone crossing. See the SWA1969 flight status page for this flight to view local times or setup timezone preferences in your user account.

Time Position Orientation Groundspeed Altitude Reporting Facility
EDT Latitude Longitude Course Direction KTS MPH feet Rate Location/Type
Mon 11:21:05 AM 39.3000 -94.7333 185° South 143 165 2,000  Level Kansas City TRACON
Mon 11:21:44 AM 39.2725 -94.7364 185° South 148 170 2,800 2,020 Climbing Kansas City Center
Mon 11:22:46 AM 39.2081 -94.7303 176° South 229 264 5,400 2,226 Climbing Kansas City Center
Mon 11:23:48 AM 39.2025 -94.6356 94° East 287 330 7,400 2,710 Climbing Kansas City Center
Mon 11:24:50 AM 39.2681 -94.5547 44° Northeast 316 364 11,000 3,290 Climbing Kansas City Center
Mon 11:25:52 AM 39.3492 -94.4886 32° Northeast 356 410 14,200 3,339 Climbing Kansas City Center
Mon 11:26:54 AM 39.4461 -94.4056 33° Northeast 375 432 17,900 3,097 Climbing Kansas City Center
Mon 11:27:56 AM 39.5325 -94.3331 33° Northeast 386 444 20,600 2,661 Climbing Kansas City Center
Mon 11:28:58 AM 39.6389 -94.2461 32° Northeast 404 465 23,400 2,371 Climbing Kansas City Center
Mon 11:30:00 AM 39.7014 -94.1267 56° Northeast 423 487 25,500 2,081 Climbing Kansas City Center
Mon 11:31:02 AM 39.7422 -93.9556 73° East 446 513 27,700 2,112 Climbing Kansas City Center
Mon 11:32:05 AM 39.7786 -93.8075 72° East 450 518 29,900 1,584 Climbing Kansas City Center
Mon 11:33:07 AM 39.8133 -93.6597 73° East 455 524 31,000 532 Climbing Kansas City Center
Mon 11:34:09 AM 39.8536 -93.5014 72° East 465 535 31,000  Level Kansas City Center
Mon 11:35:11 AM 39.9000 -93.3033 73° East 479 551 31,000  Level Kansas City Center
Mon 11:36:13 AM 39.9386 -93.1383 73° East 482 555 31,000  Level Kansas City Center
Mon 11:37:15 AM 39.9797 -92.9739 72° East 479 551 31,000  Level Kansas City Center
Mon 11:38:17 AM 40.0167 -92.8114 73° East 479 551 31,000  Level Kansas City Center
Mon 11:39:19 AM 40.0633 -92.6144 73° East 482 555 31,000  Level Kansas City Center
Mon 11:40:21 AM 40.1033 -92.4425 73° East 480 552 31,000  Level Kansas City Center
Mon 11:41:23 AM 40.1392 -92.2894 73° East 482 555 31,000  Level Kansas City Center
Mon 11:42:25 AM 40.1761 -92.1239 74° East 482 555 31,000  Level Kansas City Center
Mon 11:43:27 AM 40.2200 -91.9269 74° East 477 549 31,000  Level Kansas City Center
Mon 11:44:29 AM 40.2569 -91.7631 73° East 475 547 31,000  Level Kansas City Center
Mon 11:45:31 AM 40.2933 -91.5972 74° East 477 549 31,000  Level Kansas City Center
Mon 11:46:33 AM 40.3292 -91.4328 74° East 476 548 31,000  Level Kansas City Center
Mon 11:47:35 AM 40.3675 -91.2669 73° East 473 544 31,000  Level Kansas City Center
Mon 11:48:20 AM 40.3975 -91.1336 74° East 476 548 31,000  Level Chicago Center
Mon 11:49:22 AM 40.4342 -90.9650 74° East 480 552 31,000  Level Chicago Center
Mon 11:50:23 AM 40.4697 -90.7975 74° East 479 551 31,000 -244 Level Chicago Center
Mon 11:51:25 AM 40.5133 -90.5950 74° East 481 554 30,500 -726 Descending Chicago Center
Mon 11:52:27 AM 40.5472 -90.4294 75° East 471 542 29,500 -1,452 Descending Chicago Center
Mon 11:53:29 AM 40.5811 -90.2675 75° East 460 529 27,500 -1,935 Descending Chicago Center
Mon 11:54:31 AM 40.6172 -90.0961 74° East 441 507 25,500 -2,032 Descending Chicago Center
Mon 11:55:33 AM 40.6475 -89.9492 75° East 421 484 23,300 -1,210 Descending Chicago Center
Mon 11:56:35 AM 40.6939 -89.8136 66° East 412 474 23,000 -145 Descending Chicago Center
Mon 11:57:37 AM 40.7658 -89.6961 51° Northeast 411 473 23,000 -1,122 Level Chicago Center
Mon 11:58:38 AM 40.8406 -89.5664 53° Northeast 438 504 20,700 -2,341 Descending Chicago Center
Mon 11:59:40 AM 40.9147 -89.4394 52° Northeast 433 498 18,200 -1,839 Descending Chicago Center
Mon 12:00:42 PM 40.9836 -89.3203 53° Northeast 410 472 16,900 -1,210 Descending Chicago Center
Mon 12:01:44 PM 41.0642 -89.1800 53° Northeast 407 468 15,700 -1,306 Descending Chicago Center
Mon 12:02:46 PM 41.1294 -89.0625 54° Northeast 400 460 14,200 -1,902 Descending Chicago Center
Mon 12:03:47 PM 41.1950 -88.9489 52° Northeast 390 449 11,800 -1,756 Descending Chicago Center
Mon 12:04:49 PM 41.2550 -88.8397 54° Northeast 369 425 10,600 -871 Descending Chicago Center
Mon 12:05:51 PM 41.3078 -88.7458 53° Northeast 321 369 10,000 -1,161 Descending Chicago Center
Mon 12:06:53 PM 41.3664 -88.6389 54° Northeast 301 346 8,200 -1,452 Descending Chicago Center
Mon 12:07:55 PM 41.4147 -88.5503 54° Northeast 297 342 7,000 -1,065 Descending Chicago Center
Mon 12:08:57 PM 41.4383 -88.4522 72° East 282 325 6,000 -488 Descending Chicago Center
Mon 12:09:58 PM 41.4636 -88.3586 70° East 273 314 6,000  Level Chicago Center
Mon 12:11:00 PM 41.4878 -88.2647 71° East 269 310 6,000  Level Chicago Center
Mon 12:12:02 PM 41.5125 -88.1692 71° East 269 310 6,000 -435 Level Chicago Center
Mon 12:13:04 PM 41.5378 -88.0736 71° East 269 310 5,100 -484 Descending Chicago Center
Mon 12:14:06 PM 41.5628 -87.9789 71° East 268 308 5,000 -390 Descending Chicago Center
Mon 12:15:07 PM 41.5900 -87.8675 72° East 265 305 4,300 -829 Descending Chicago Center
Mon 12:16:09 PM 41.6178 -87.7775 68° East 267 307 3,300 -780 Descending Chicago Center
Mon 12:16:47 PM 41.6500 -87.7333 46° Northeast 264 304 3,000 -306 Descending Chicago TRACON
Mon 12:17:47 PM 41.7000 -87.6833 37° Northeast 214 246 2,800 -476 Descending Chicago TRACON
Mon 12:18:53 PM 41.7667 -87.6667 11° North 190 219 2,000 -476 Descending Chicago TRACON
Mon 12:19:53 PM 41.8000 -87.6833 340° North 157 181 1,800 -450 Descending Chicago TRACON
Mon 12:20:53 PM 41.8167 -87.7167 304° West 140 161 1,100 -700 Descending Chicago TRACON

Login

Don't have an account? Register now (free) for customized features, flight alerts, and more!